sat.trackr.live / text

‹ back to catalog

2024-092B

NORAD 59774 · 2024-092B

PAYLOAD ACTIVE UNKNOWN

§ Identity

Operator
Country
CIS
Launch date
2024-05-16
Launch site
PLMSC
Launch vehicle
Mass (kg)
RCS (m²)

External: N2YO · Heavens-Above · Gunter

§ Orbital elements

Epoch: 2026-09-22T21:48:38.265408Z

Period
94.10 min
Inclination
97.6607°
Eccentricity
0.0008190
Mean motion
15.30294514 rev/d
Perigee alt
469.3 km
Apogee alt
480.5 km
Semi-major
6,853.1 km
B*
2.6371e-4
RAAN
37.8722°
Arg perigee
189.7232°
Mean anomaly
170.3851°
Rev number
13,047

§ Raw data

2024-092B1 59774U 24092B   26265.90877622  .00007654  00000+0  26371-3 0  99942 59774  97.6607  37.8722 0008190 189.7232 170.3851 15.30294514130472

JSON: /api/v1/satellites/59774 · /tle

For live sub-satellite position, see the globe view (requires WebGL).

§ Visibility from observer

Set your observer location to see the next 7 days of passes ≥ 10°. The values pass through the URL so the page stays shareable.

No JS? Fill the form by hand. The geolocation button needs JavaScript.

§ Radio — SatNOGS DB

ModeDescriptionDownlinkUplink
GMSK USP Backup telemetry transmitter 401.140 MHz
GMSK USP Main telemetry transmitter 401.005 MHz

2 transmitters · refreshed weekly from db.satnogs.org